[[{"header":{"parameterUnit":"m.s-1","parameterCategory":1,"la1":30.2991,"la2":30.254,"lo1":-89.0895,"lo2":-89.0444,"dy":0.0017,"dx":0.0017,"nx":28,"ny":28,"refTime":"2025-06-01T03:00:00:Z","depth":0,"parameterNumber":2,"parameterNumberName":"U-component_of_WINDS"},"data":[0,0,0,0,0,0,0,0,0,0,0,0,0,0,0,0,0,0,0,0,0,0,0,0,0,0,0,0,0,0,0,0,0,0,0,0,0,0,0,0,0,0,0,0,0,0,0,0,0,0,0,0,0,0,0,0,0,0,-0.044,-0.044,0,-0.0369,-0.0368,-0.0368,-0.0315,-0.0314,-0.0314,-0.0314,-0.0238,-0.0236,-0.0235,0,0,0,0,0,0,0,0,0,0,0,0,0,-0.0529,-0.0528,-0.0441,-0.044,-0.0439,-0.0369,-0.0368,-0.0367,-0.0315,-0.0314,-0.0314,-0.0313,-0.0238,-0.0236,-0.0235,0,0,0,0,0,0,0,0,0,0,0,0,0,-0.0478,-0.0527,-0.0441,-0.0404,-0.04,-0.037,-0.0368,-0.0367,-0.0315,-0.0314,-0.0314,-0.0313,-0.0239,-0.0237,-0.0234,-0.0233,0,0,-0.0227,-0.0226,0,0,0,0,0,0,0,0,-0.0481,-0.0474,-0.0411,-0.0407,-0.0402,-0.035,-0.0372,-0.0322,-0.0315,-0.0347,-0.0314,-0.0313,-0.0276,-0.027,-0.0258,-0.023,-0.0226,-0.0227,-0.0225,-0.0224,-0.0224,0,0,0,0,0,0,0,-0.0484,-0.0477,-0.0412,-0.041,-0.0405,-0.0391,-0.0383,-0.0362,-0.0316,-0.0345,-0.0341,-0.0333,-0.0273,-0.0261,-0.0256,-0.0225,-0.0227,-0.0225,-0.0223,-0.0222,-0.0192,-0.0193,0,0,0,0,0,0,-0.0494,-0.048,-0.0414,-0.041,-0.0441,-0.039,-0.0381,-0.0368,-0.0316,-0.0308,-0.0334,-0.0331,-0.0265,-0.0259,-0.0253,-0.0248,-0.0224,-0.0222,-0.0221,-0.0191,-0.0192,-0.0193,0,0,0,0,0,0,-0.0496,-0.0488,-0.0417,-0.0444,-0.0434,-0.0389,-0.0375,-0.0367,-0.0354,-0.0308,-0.0299,-0.0329,-0.0264,-0.0257,-0.0239,-0.0245,-0.0221,-0.0219,-0.0191,-0.0192,-0.0193,-0.0239,0,0,0,0,0,0,-0.0499,-0.0489,-0.0489,-0.0445,-0.0433,-0.0405,-0.0375,-0.0366,-0.035,-0.0346,-0.0302,-0.0294,-0.0263,-0.0243,-0.0236,-0.0241,-0.0217,-0.019,-0.0191,-0.0192,-0.0236,-0.0241,-0.0245,0,0,0,0,0,-0.0502,-0.0504,-0.0489,-0.0482,-0.0431,-0.0405,-0.0398,-0.0364,-0.0351,-0.035,-0.032,-0.0295,-0.0246,-0.0241,-0.0234,-0.0238,-0.0189,-0.0191,-0.0192,-0.0234,-0.024,-0.0245,0,0,0,0,0,0,-0.0549,-0.0498,-0.048,-0.0468,-0.0442,-0.0397,-0.0394,-0.0371,-0.0347,-0.0344,-0.0301,-0.0292,-0.0278,-0.0256,-0.0252,-0.0234,-0.0214,-0.0214,-0.0249,-0.0254,-0.0258,-0.0263,-0.0215,0,0,0,0,0,-0.0559,-0.0542,-0.0498,-0.0492,-0.0479,-0.0439,-0.0426,-0.0402,-0.0373,-0.0361,-0.033,-0.0301,-0.0279,-0.0265,-0.0243,-0.0233,-0.0223,-0.0233,-0.0237,-0.0241,-0.0241,-0.0234,-0.0238,-0.0198,-0.0198,-0.0198,0,0,-0.0577,-0.0547,-0.0539,-0.05,-0.0477,-0.046,-0.043,-0.0414,-0.0401,-0.0358,-0.0339,-0.0316,-0.0281,-0.0268,-0.026,-0.0249,-0.025,-0.0243,-0.0246,-0.0244,-0.0236,-0.024,-0.0244,-0.0199,-0.0198,-0.0198,0,0,-0.0602,-0.0578,-0.057,-0.0548,-0.0513,-0.0486,-0.0485,-0.0443,-0.0426,-0.0407,-0.0375,-0.0359,-0.0322,-0.0298,-0.0282,-0.0299,-0.0275,-0.0293,-0.0315,-0.031,-0.0313,-0.0315,-0.0321,-0.0324,-0.0294,-0.0294,-0.0294,0,-0.0629,-0.0604,-0.0569,-0.0555,-0.0538,-0.05,-0.0492,-0.0471,-0.0431,-0.042,-0.0408,-0.0362,-0.0335,-0.0316,-0.0321,-0.0309,-0.0305,-0.0297,-0.0315,-0.0318,-0.0319,-0.0325,-0.0327,-0.0296,-0.0296,-0.0296,-0.0295,0,-0.0638,-0.0621,-0.0619,-0.0582,-0.0566,-0.0554,-0.0517,-0.0505,-0.0483,-0.0457,-0.0439,-0.0406,-0.0376,-0.037,-0.0348,-0.0348,-0.0342,-0.0324,-0.0302,-0.0326,-0.033,-0.0332,-0.03,-0.0299,-0.0298,-0.0297,0,0,-0.069,-0.0635,-0.0634,-0.0617,-0.0577,-0.0562,-0.055,-0.0521,-0.0511,-0.0485,-0.0473,-0.0443,-0.0426,-0.0407,-0.0382,-0.0377,-0.0393,-0.0359,-0.0357,-0.0366,-0.039,-0.0404,-0.0407,-0.0377,-0.0377,-0.0378,-0.0393,0,-0.0708,-0.0684,-0.0652,-0.0638,-0.0622,-0.0586,-0.0575,-0.0548,-0.0525,-0.0507,-0.048,-0.046,-0.0439,-0.0428,-0.0421,-0.0392,-0.0397,-0.0391,-0.0364,-0.0364,-0.0373,-0.0409,-0.0423,-0.0439,-0.0395,-0.0395,-0.0395,0,-0.0726,-0.0702,-0.0687,-0.0648,-0.064,-0.0631,-0.0603,-0.0587,-0.0556,-0.0539,-0.0519,-0.0492,-0.0476,-0.0459,-0.0436,-0.0433,-0.042,-0.0404,-0.0404,-0.0399,-0.038,-0.0405,-0.0444,-0.0446,-0.0397,-0.0397,-0.0397,0,-0.0764,-0.0729,-0.0715,-0.0702,-0.0656,-0.0651,-0.0631,-0.06,-0.0586,-0.0561,-0.0551,-0.0525,-0.051,-0.049,-0.0457,-0.0447,-0.0438,-0.0417,-0.0422,-0.0423,-0.0421,-0.0421,-0.0458,-0.0415,-0.0415,-0.0415,-0.0415,0,-0.0787,-0.0779,-0.0732,-0.0723,-0.0713,-0.0677,-0.0668,-0.0645,-0.0618,-0.0604,-0.0572,-0.0559,-0.0517,-0.0499,-0.0473,-0.0458,-0.0452,-0.0437,-0.043,-0.044,-0.0441,-0.043,-0.0428,-0.0415,-0.0415,-0.0415,-0.0415,0,-0.0828,-0.0796,-0.0779,-0.0738,-0.0728,-0.0722,-0.0687,-0.0677,-0.0652,-0.0635,-0.0628,-0.0589,-0.0567,-0.0532,-0.0499,-0.0482,-0.0471,-0.046,-0.0482,-0.0477,-0.0484,-0.0484,-0.0514,-0.0516,-0.0473,-0.0473,-0.0474,0,-0.0845,-0.0838,-0.0797,-0.0785,-0.0768,-0.075,-0.0735,-0.07,-0.0685,-0.0651,-0.0645,-0.0621,-0.0599,-0.0565,-0.0533,-0.0508,-0.0495,-0.0507,-0.0491,-0.0501,-0.0495,-0.0495,-0.0494,-0.0511,-0.0512,-0.0512,-0.0513,0,-0.0877,-0.0862,-0.0842,-0.0817,-0.0801,-0.0779,-0.0756,-0.0749,-0.0708,-0.0694,-0.0671,-0.0654,-0.0622,-0.0597,-0.0568,-0.0547,-0.0523,-0.0518,-0.0518,-0.0527,-0.054,-0.0533,-0.0491,-0.0517,-0.0517,-0.0517,-0.0516,-0.0516,-0.0905,-0.0898,-0.0868,-0.0847,-0.0826,-0.0806,-0.0794,-0.0769,-0.075,-0.0721,-0.0701,-0.0679,-0.0649,-0.0608,-0.0589,-0.0571,-0.056,-0.056,-0.056,-0.056,-0.0564,-0.0544,-0.0565,-0.0565,-0.0565,-0.0565,-0.0565,0,-0.0936,-0.0915,-0.0897,-0.0866,-0.0849,-0.083,-0.0803,-0.079,-0.0772,-0.0747,-0.0727,-0.0701,-0.0678,-0.0644,-0.0619,-0.0611,-0.0599,-0.0605,-0.0605,-0.06,-0.0575,-0.0577,-0.0615,-0.0615,-0.0615,-0.0615,-0.0615,-0.0615,-0.0949,-0.0935,-0.0917,-0.0892,-0.0871,-0.0851,-0.0837,-0.0818,-0.0797,-0.077,-0.0751,-0.073,-0.0702,-0.0674,-0.0651,-0.0642,-0.0634,-0.0643,-0.0631,-0.0607,-0.0602,-0.0598,-0.06,-0.0642,-0.0642,-0.0658,-0.0658,-0.0658]},{"header":{"parameterUnit":"m.s-1","parameterCategory":1,"la1":30.2991,"la2":30.254,"lo1":-89.0895,"lo2":-89.0444,"dy":0.0017,"dx":0.0017,"nx":28,"ny":28,"refTime":"2025-06-01T03:00:00:Z","depth":0,"parameterNumber":3,"parameterNumberName":"V-component_of_WINDS"},"data":[0,0,0,0,0,0,0,0,0,0,0,0,0,0,0,0,0,0,0,0,0,0,0,0,0,0,0,0,0,0,0,0,0,0,0,0,0,0,0,0,0,0,0,0,0,0,0,0,0,0,0,0,0,0,0,0,0,0,2.3477,2.3477,0,2.3453,2.3453,2.3453,2.3467,2.3468,2.3469,2.347,2.3442,2.3441,2.3439,0,0,0,0,0,0,0,0,0,0,0,0,0,2.3532,2.3531,2.3477,2.3477,2.3476,2.3453,2.3453,2.3453,2.3467,2.3468,2.3469,2.347,2.3443,2.3441,2.3439,0,0,0,0,0,0,0,0,0,0,0,0,0,2.3508,2.3531,2.3477,2.3481,2.3481,2.3453,2.3453,2.3453,2.3467,2.3468,2.3469,2.347,2.3443,2.3441,2.3439,2.3405,0,0,2.3433,2.3432,0,0,0,0,0,0,0,0,2.3509,2.3506,2.3481,2.3481,2.3481,2.3464,2.3462,2.3437,2.3467,2.3472,2.347,2.3471,2.3449,2.3446,2.3439,2.3404,2.3403,2.3433,2.3431,2.343,2.343,0,0,0,0,0,0,0,2.3511,2.3507,2.3468,2.348,2.348,2.3483,2.3481,2.3458,2.3455,2.3472,2.3473,2.347,2.3449,2.3441,2.3439,2.3402,2.3433,2.3431,2.343,2.3429,2.3336,2.3335,0,0,0,0,0,0,2.3513,2.3508,2.3468,2.3467,2.3498,2.3481,2.3479,2.3469,2.3455,2.3454,2.3469,2.3471,2.3444,2.3441,2.3438,2.3396,2.343,2.3429,2.3427,2.3338,2.3336,2.3335,0,0,0,0,0,0,2.3514,2.3509,2.3469,2.3488,2.3483,2.3479,2.3468,2.3468,2.346,2.3453,2.3452,2.3462,2.3445,2.3441,2.3413,2.3395,2.3428,2.3426,2.3339,2.3337,2.3335,2.3312,0,0,0,0,0,0,2.3516,2.351,2.3497,2.3488,2.3482,2.3446,2.3467,2.3466,2.3457,2.3459,2.3446,2.3445,2.3445,2.3416,2.3411,2.3393,2.3424,2.334,2.3338,2.3336,2.3315,2.331,2.3306,0,0,0,0,0,2.3517,2.3491,2.3497,2.3492,2.3467,2.3445,2.3441,2.3443,2.3455,2.3442,2.3438,2.3446,2.3398,2.3413,2.3407,2.3388,2.3342,2.3339,2.3336,2.3316,2.3311,2.3306,0,0,0,0,0,0,2.3498,2.349,2.3496,2.3466,2.3456,2.3447,2.3431,2.3437,2.3423,2.3425,2.3427,2.3424,2.3395,2.3389,2.3406,2.3354,2.3372,2.3368,2.3359,2.3353,2.3349,2.335,2.3422,0,0,0,0,0,2.3491,2.3474,2.3468,2.3442,2.3437,2.3435,2.3425,2.3428,2.3417,2.3412,2.3406,2.3394,2.3377,2.3365,2.3348,2.3314,2.3311,2.3298,2.3294,2.3291,2.3286,2.3266,2.326,2.3326,2.3326,2.3326,0,0,2.3474,2.3468,2.3458,2.3438,2.3431,2.3412,2.3431,2.3411,2.3397,2.3409,2.3382,2.3377,2.3364,2.3333,2.3319,2.3327,2.3268,2.3287,2.3284,2.3282,2.3263,2.3257,2.3251,2.3324,2.3324,2.3325,0,0,2.3435,2.343,2.3407,2.3399,2.3388,2.3387,2.3381,2.3371,2.3368,2.3342,2.335,2.3333,2.3303,2.3293,2.3284,2.3241,2.3247,2.3236,2.3213,2.3193,2.3188,2.3183,2.3166,2.316,2.3232,2.3232,2.3232,0,2.3416,2.339,2.3394,2.3374,2.3364,2.3375,2.3351,2.3343,2.3327,2.3319,2.333,2.3292,2.3284,2.3249,2.3239,2.3232,2.3224,2.3237,2.3189,2.3184,2.318,2.3163,2.3157,2.3231,2.3231,2.3231,2.3231,0,2.3366,2.3348,2.3331,2.3315,2.3304,2.3282,2.3282,2.327,2.3273,2.327,2.3242,2.3234,2.3215,2.3207,2.321,2.3173,2.3178,2.3189,2.3206,2.3172,2.3156,2.315,2.3229,2.3229,2.323,2.323,0,0,2.3313,2.3301,2.3294,2.3286,2.3275,2.326,2.3238,2.3221,2.3209,2.3198,2.3178,2.3153,2.3162,2.3152,2.3154,2.3137,2.3101,2.3149,2.3148,2.3138,2.3057,2.3048,2.3041,2.3106,2.3105,2.3104,2.3058,0,2.3272,2.3234,2.3237,2.3201,2.3183,2.3193,2.3174,2.3164,2.3161,2.3144,2.3141,2.3122,2.3137,2.313,2.3114,2.3109,2.3084,2.3112,2.3086,2.3085,2.3087,2.3033,2.3024,2.2981,2.3052,2.3051,2.305,0,2.3219,2.3206,2.3168,2.3158,2.3151,2.3133,2.3117,2.3102,2.309,2.3089,2.3078,2.3082,2.3059,2.3078,2.3044,2.3063,2.3053,2.3048,2.3047,2.3043,2.3064,2.3026,2.2968,2.296,2.3041,2.3042,2.3043,0,2.3182,2.3155,2.3128,2.3122,2.311,2.3097,2.3091,2.3081,2.307,2.3056,2.3048,2.3031,2.3022,2.3008,2.3007,2.3021,2.2972,2.2992,2.2969,2.2969,2.2957,2.2957,2.2894,2.2953,2.2953,2.2953,2.2954,0,2.3134,2.311,2.3111,2.3094,2.3067,2.3071,2.3044,2.3039,2.303,2.3012,2.302,2.3002,2.3003,2.2985,2.2985,2.2956,2.2952,2.2949,2.2949,2.2947,2.2947,2.2939,2.2941,2.2952,2.2952,2.2952,2.2953,0,2.3087,2.3087,2.3059,2.305,2.3047,2.3028,2.302,2.3003,2.3001,2.2978,2.2973,2.2969,2.2948,2.2947,2.2923,2.2922,2.2887,2.2891,2.2891,2.289,2.2867,2.2868,2.2794,2.2784,2.2852,2.2851,2.2851,0,2.3056,2.3038,2.3027,2.3016,2.301,2.2992,2.2981,2.2983,2.2971,2.2957,2.2941,2.2922,2.2906,2.2872,2.2866,2.2847,2.285,2.2825,2.2847,2.2845,2.2847,2.2847,2.2844,2.282,2.2819,2.2819,2.2818,0,2.3,2.3001,2.2985,2.2969,2.2956,2.2943,2.2931,2.2921,2.2922,2.2908,2.2887,2.2875,2.285,2.283,2.2811,2.2805,2.281,2.2812,2.2805,2.2802,2.2802,2.28,2.2877,2.2813,2.2813,2.2814,2.2814,2.2814,2.2958,2.2942,2.2932,2.2914,2.2905,2.2894,2.2878,2.2874,2.2857,2.2838,2.284,2.2817,2.2805,2.2781,2.2772,2.2753,2.2761,2.2752,2.2749,2.2746,2.2743,2.2807,2.275,2.275,2.275,2.275,2.275,0,2.2901,2.2895,2.2879,2.2862,2.2847,2.2856,2.2843,2.283,2.2809,2.2798,2.2783,2.2758,2.2738,2.2731,2.2711,2.2697,2.2699,2.2692,2.2692,2.2689,2.2738,2.2745,2.269,2.269,2.269,2.269,2.269,2.269,2.2869,2.2842,2.2841,2.2809,2.2803,2.2781,2.2772,2.2761,2.2752,2.2725,2.2708,2.2705,2.2695,2.2674,2.2656,2.2654,2.2646,2.2636,2.2635,2.268,2.2686,2.2692,2.2698,2.2635,2.2635,2.2589,2.2588,2.2588]}]]